This is the latest recevied weather packets stored in our database for station/object JE4YKI-13. If no packets are shown the sender has not sent any weather packets the latest 1 day(s).
| Time | Temp. | Humidity | Pressure | Rain* | Wind** | Luminosity | Snow |
|---|---|---|---|---|---|---|---|
| 1778001625 | 12.22° C | 77% | 1019 hPa | 0 mm | 0 m/s | - | - |
| 1778001025 | 12.22° C | 78% | 1019.1 hPa | 0 mm | 0 m/s | - | - |
| 1778000424 | 12.78° C | 79% | 1019.2 hPa | 0 mm | 0 m/s | - | - |
| 1777999824 | 12.78° C | 79% | 1019.3 hPa | 0 mm | 0 m/s | - | - |
| 1777999224 | 12.78° C | 77% | 1019.4 hPa | 0 mm | 0 m/s | - | - |
| 1777998623 | 13.33° C | 78% | 1019.2 hPa | 0 mm | 0 m/s | - | - |
| 1777998023 | 12.78° C | 79% | 1019.4 hPa | 0 mm | 0 m/s | - | - |
| 1777997422 | 12.78° C | 78% | 1019.4 hPa | 0 mm | 0 m/s | - | - |
| 1777996822 | 12.78° C | 77% | 1019.3 hPa | 0 mm | 0 m/s | - | - |
| 1777996222 | 13.33° C | 76% | 1019.4 hPa | 0 mm | 0 m/s | - | - |
| 1777995621 | 13.33° C | 75% | 1019.5 hPa | 0 mm | 0 m/s | - | - |
| 1777995021 | 13.89° C | 75% | 1019.6 hPa | 0 mm | 0 m/s | - | - |
| 1777994421 | 14.44° C | 74% | 1019.5 hPa | 0 mm | 0 m/s | - | - |
| 1777993820 | 14.44° C | 73% | 1019.5 hPa | 0 mm | 0 m/s | - | - |
| 1777993220 | 14.44° C | 74% | 1019.5 hPa | 0 mm | 0 m/s | - | - |
| 1777992620 | 14.44° C | 74% | 1019.5 hPa | 0 mm | 0 m/s | - | - |
| 1777992019 | 14.44° C | 73% | 1019.5 hPa | 0 mm | 0 m/s | - | - |
| 1777991419 | 14.44° C | 72% | 1019.5 hPa | 0 mm | 0 m/s | - | - |
| 1777990819 | 15° C | 71% | 1019.5 hPa | 0 mm | 0 m/s | - | - |
| 1777990219 | 15° C | 71% | 1019.5 hPa | 0 mm | 0 m/s | - | - |
| 1777989618 | 14.44° C | 70% | 1019.6 hPa | 0 mm | 0 m/s | - | - |
| 1777989017 | 14.44° C | 69% | 1019.6 hPa | 0 mm | 0 m/s | - | - |
| 1777988418 | 15° C | 66% | 1019.6 hPa | 0 mm | 0 m/s | - | - |
| 1777987817 | 15° C | 68% | 1019.6 hPa | 0 mm | 0 m/s | - | - |
| 1777987216 | 15° C | 67% | 1019.5 hPa | 0 mm | 0 m/s | - | - |
* Rain latest hour (hover to see other rain measurements)
** Current wind speed in m/s (hover to see current wind gust speed)